WEATHER DATA

YESTERDAY
Time Temp. Dewp. Hum. Bar. 1h Prec. 24h Prec.
00:07 17.2 13.3 78 1017.5 0.0000 0.0000
00:17 17.1 13.4 79 1017.6 0.0000 0.0000
00:27 17 13.3 79 1017.7 0.0000 0.0000
00:36 16.8 13.1 79 1017.8 0.0000 0.0000
00:44 16.7 13.2 80 1017.8 0.0000 0.0000
00:57 16.5 13 80 1017.8 0.0000 0.0000
01:07 16.4 12.9 80 1017.9 0.0000 0.0000
01:17 16.3 13 81 1017.8 0.0000 0.0000
01:28 16.2 12.9 81 1017.7 0.0000 0.0000
01:38 16.1 13 82 1017.7 0.0000 0.0000
01:47 16 13.1 83 1017.9 0.0000 0.0000
01:58 15.9 12.8 82 1017.7 0.0000 0.0000
02:08 15.9 12.8 82 1017.6 0.0000 0.0000
02:18 15.8 12.9 83 1017.5 0.0000 0.0000
02:28 15.7 12.8 83 1017.4 0.0000 0.0000
02:39 15.5 12.6 83 1017.4 0.0000 0.0000
02:48 15.4 12.7 84 1017.3 0.0000 0.0000
02:58 15.3 12.6 84 1017.4 0.0000 0.0000
03:09 15.3 12.6 84 1017.3 0.0000 0.0000
03:19 15.2 12.5 84 1017.4 0.0000 0.0000
03:29 15.1 12.4 84 1017.3 0.0000 0.0000
03:49 15 12.5 85 1017.1 0.0000 0.0000
03:59 14.9 12.6 86 1017.2 0.0000 0.0000
04:09 14.9 12.6 86 1017.2 0.0000 0.0000
04:19 14.8 12.5 86 1017.3 0.0000 0.0000
04:30 14.8 12.5 86 1017.2 0.0000 0.0000
04:40 14.8 12.5 86 1017.1 0.0000 0.0000
04:50 14.7 12.6 87 1017.1 0.0000 0.0000
05:00 14.7 12.6 87 1017 0.0000 0.0000
05:10 14.7 12.6 87 1017.1 0.0000 0.0000
05:20 14.7 12.6 87 1017.1 0.0000 0.0000
05:30 14.7 12.6 87 1017.1 0.0000 0.0000
05:41 14.8 12.7 87 1017 0.0000 0.0000
05:51 14.8 12.7 87 1017.1 0.0000 0.0000
06:00 14.8 12.7 87 1016.9 0.0000 0.0000
06:11 14.7 12.6 87 1016.9 0.0000 0.0000
06:21 14.7 12.6 87 1016.9 0.0000 0.0000
06:31 14.7 12.6 87 1017 0.0000 0.0000
06:41 14.8 12.7 87 1016.9 0.0000 0.0000
06:52 14.8 12.7 87 1017 0.0000 0.0000
07:01 14.8 12.8 88 1017 0.0000 0.0000
07:11 14.9 12.9 88 1017.1 0.0000 0.0000
07:21 15.1 13.1 88 1017.1 0.0000 0.0000
07:32 15.2 13.2 88 1017.2 0.0000 0.0000
07:42 15.3 13.3 88 1017.2 0.0000 0.0000
07:52 15.5 13.5 88 1017.1 0.0000 0.0000
08:02 15.7 13.5 87 1017 0.0000 0.0000
08:12 15.9 13.7 87 1017 0.0000 0.0000
08:22 16.1 13.9 87 1016.9 0.0000 0.0000
08:32 16.3 14 86 1017.1 0.0000 0.0000
08:43 16.6 14.3 86 1017 0.0000 0.0000
08:53 16.8 14.3 85 1017 0.0000 0.0000
09:03 17 14.3 84 1017 0.0000 0.0000
09:13 17.2 14.5 84 1017 0.0000 0.0000
09:23 17.5 14.6 83 1017 0.0000 0.0000
09:33 17.7 14.6 82 1016.9 0.0000 0.0000
09:43 18 14.5 80 1016.9 0.0000 0.0000
09:54 18.4 14.9 80 1017 0.0000 0.0000
10:04 18.8 14.9 78 1016.9 0.0000 0.0000
10:13 19.2 15.1 77 1016.9 0.0000 0.0000
10:23 19.7 15.1 75 1016.9 0.0000 0.0000
10:34 20.1 15.5 75 1016.8 0.0000 0.0000
10:43 20.2 15 72 1016.8 0.0000 0.0000
10:53 20.1 14.7 71 1016.8 0.0000 0.0000
11:04 20.3 14.7 70 1016.9 0.0000 0.0000
11:14 20.3 14.7 70 1016.8 0.0000 0.0000
11:24 20.6 14.5 68 1016.7 0.0000 0.0000
11:34 20.8 14.7 68 1016.7 0.0000 0.0000
11:44 20.9 14.8 68 1016.8 0.0000 0.0000
11:54 20.9 14.3 66 1016.5 0.0000 0.0000
12:04 21 14.6 67 1016.5 0.0000 0.0000
12:14 21.1 14.5 66 1016.4 0.0000 0.0000
12:25 21.2 14.6 66 1016.2 0.0000 0.0000
12:35 21.3 14.7 66 1016.1 0.0000 0.0000
12:45 21.5 14.6 65 1016.1 0.0000 0.0000
12:55 21.6 14.7 65 1016 0.0000 0.0000
13:05 21.7 14.8 65 1015.7 0.0000 0.0000
13:15 21.8 14.9 65 1015.8 0.0000 0.0000
13:25 22 14.9 64 1015.6 0.0000 0.0000
13:36 22 14.9 64 1015.6 0.0000 0.0000
13:46 22.2 15.1 64 1015.5 0.0000 0.0000
13:56 22.3 14.9 63 1015.7 0.0000 0.0000
14:06 22.4 15 63 1015.4 0.0000 0.0000
14:15 22.6 15.2 63 1015.4 0.0000 0.0000
14:26 22.7 15.1 62 1015.3 0.0000 0.0000
14:36 22.9 15 61 1015.1 0.0000 0.0000
14:47 23.1 15.2 61 1014.9 0.0000 0.0000
14:57 23.3 15.6 62 1014.9 0.0000 0.0000
15:16 23.7 15.2 59 1014.7 0.0000 0.0000
15:27 23.8 15 58 1014.7 0.0000 0.0000
15:37 24 15.2 58 1014.4 0.0000 0.0000
15:47 24.2 15.2 57 1014.4 0.0000 0.0000
15:57 24.4 15.3 57 1014.3 0.0000 0.0000
16:08 24.6 15 55 1014.1 0.0000 0.0000
16:16 24.8 15.2 55 1014 0.0000 0.0000
16:27 25.1 15.4 55 1014 0.0000 0.0000
16:37 25.1 15.4 55 1014.1 0.0000 0.0000
16:47 25.1 15.4 55 1013.9 0.0000 0.0000
16:57 25 15.3 55 1013.7 0.0000 0.0000
17:08 25 15.3 55 1013.8 0.0000 0.0000
17:14 24.9 15.5 56 1013.6 0.0000 0.0000
17:27 25 15.6 56 1013.6 0.0000 0.0000
17:37 25 15.9 57 1013.4 0.0000 0.0000
17:48 25 15.6 56 1013.4 0.0000 0.0000
17:57 25 15.9 57 1013.5 0.0000 0.0000
18:07 24.9 16.1 58 1013.4 0.0000 0.0000
18:18 24.9 16.1 58 1013.3 0.0000 0.0000
18:28 24.9 16.3 59 1013.3 0.0000 0.0000
18:37 24.8 16.2 59 1013.2 0.0000 0.0000
18:48 24.7 16.4 60 1013.2 0.0000 0.0000
18:58 24.6 16.1 59 1013.1 0.0000 0.0000
19:08 24.6 16.3 60 1013.1 0.0000 0.0000
19:17 24.5 16.5 61 1013.1 0.0000 0.0000
19:28 24.4 16.4 61 1013 0.0000 0.0000
19:38 24.3 16.3 61 1013 0.0000 0.0000
19:48 24.2 16.2 61 1013 0.0000 0.0000
19:58 24.1 16.4 62 1013 0.0000 0.0000
20:08 23.9 16.2 62 1013 0.0000 0.0000
20:18 23.8 16.3 63 1013 0.0000 0.0000
20:28 23.6 16.1 63 1013 0.0000 0.0000
20:39 23.4 16.2 64 1013.1 0.0000 0.0000
20:48 23.1 16.2 65 1013.1 0.0000 0.0000
20:58 22.8 15.9 65 1013 0.0000 0.0000
21:08 22.5 15.8 66 1013.2 0.0000 0.0000
21:19 22.2 15.8 67 1013 0.0000 0.0000
21:29 22 15.8 68 1013.3 0.0000 0.0000
21:38 22 15.8 68 1013.1 0.0000 0.0000
21:49 21.9 16 69 1013 0.0000 0.0000
21:59 21.8 15.9 69 1013.2 0.0000 0.0000
22:09 21.8 16.1 70 1013.2 0.0000 0.0000
22:19 21.8 16.1 70 1013.2 0.0000 0.0000
22:29 21.7 16 70 1013.3 0.0000 0.0000
22:39 21.6 16.1 71 1013.4 0.0000 0.0000
22:49 21.5 16 71 1013.4 0.0000 0.0000
23:00 21.4 16.1 72 1013.5 0.0000 0.0000
23:09 21.3 16.1 72 1013.5 0.0000 0.0000
23:19 21.2 16.2 73 1013.6 0.0000 0.0000
23:29 21.1 16.1 73 1013.6 0.0000 0.0000
23:50 21 16.2 74 1013.7 0.0000 0.0000

DAY STATISTIC

2018-08-19
TEMPERATURE
AVERAGE
19.8
HIGH
25.1
16:27
LOW
14.7
04:50
PRESSURE
AVERAGE
1015.6
HIGH
1017.9
01:07
LOW
1013.0
19:28
DEWPOINT
AVERAGE
14.5
HIGH
16.5
19:17
LOW
12.4
03:29
HUMIDITY
AVERAGE
73
HIGH
88
07:01
LOW
55
16:08
PRECIPITATION
RAIN HOUR
0.0
RAIN DAY
0.0
TEMPERATURE (°C)
LOW
14.7
HIGH
25.1
AVERAGE
19.8
PRESSURE (hpa)
LOW
1013.0
HIGH
1017.9
AVERAGE
1015.6
DEVICE